Regional Weather Roundup
Issued by NWS

Home | Current Version | Previous Version | Text Only | Print | Product List | Glossary Off
Versions: 1 2 3 4 5 6 7 8 9 10 11 12 13 14 15 16 17 18 19 20 21 22 23 24 25 26 27 28 29 30 31 32 33 34 35 36 37 38 39 40 41 42 43 44 45 46 47 48 49 50

121
ASUS45 KCYS 220710
RWRWY

WYOMING REGIONAL WEATHER ROUNDUP
NATIONAL WEATHER SERVICE CHEYENNE WY
100 AM MDT THU JUN 22 2017

NOTE:  "FAIR" INDICATES FEW OR NO CLOUDS BELOW 12,000 FEET
WITH NO SIGNIFICANT WEATHER AND/OR OBSTRUCTIONS TO VISIBILITY.

WYZ001-220800-
YELLOWSTONE NATIONAL PARK

CITY           SKY/WX    TMP DP  RH WIND       PRES   REMARKS
LK YELLOWSTONE   N/A     48  41  76 CALM      30.16R
W YELLOWSTONE  NOT AVBL

$$
WYZ002>013-054>058-071-098>099-220800-
NORTHERN WYOMING

CITY           SKY/WX    TMP DP  RH WIND       PRES   REMARKS
JACKSON        FAIR      59  36  41 SW9       30.06S
CODY           MOCLDY    65  30  27 NW8       30.00R
GREYBULL       FAIR      74  39  28 NW21      29.82R
WORLAND        FAIR      71  47  42 NW10      29.85R
SHERIDAN       MOCLDY    64  54  69 NW10      29.88R
BUFFALO        FAIR      62  51  67 NW6       29.92R
GILLETTE       FAIR      60  46  59 CALM      29.84F
NEWCASTLE      FAIR      66  46  48 NE3       29.79S

$$
WYZ014>020-022>026-101>103-220800-
CENTRAL WYOMING

CITY           SKY/WX    TMP DP  RH WIND       PRES   REMARKS
BIG PINEY      FAIR      53  40  61 CALM      30.10F
PINEDALE       FAIR      54  43  66 N12       30.11F
DUBOIS         FAIR      57  34  41 NW9       30.07S
LANDER         FAIR      69  33  26 SW3       29.95R
RIVERTON       FAIR      68  43  40 N9        29.94R
CASPER         FAIR      61  50  67 NW3       29.91R
DOUGLAS        FAIR      62  48  60 NW13      29.85R

$$
WYZ021-027>030-104>119-220800-
SOUTHERN WYOMING

CITY           SKY/WX    TMP DP  RH WIND       PRES   REMARKS
EVANSTON       FAIR      66  44  45 CALM      30.15R
KEMMERER         N/A     59  39  47 W9        30.13F
FORT BRIDGER   FAIR      63  45  51 W8        30.16S
ROCK SPRINGS   FAIR      63  42  46 NW6       30.08S
DIXON          FAIR      57  41  55 E7        30.10S
RAWLINS        FAIR      64  37  36 SW10      30.05S
SARATOGA       FAIR      64  34  32 SW13      30.07F
LARAMIE        FAIR      62  36  37 SW12      30.06F
CHEYENNE       FAIR      72  36  26 W15       29.97S
TORRINGTON     FAIR      68  51  54 W5        29.76S
PINE BLUFFS    FAIR      64  37  36 W7        29.88F

$$




USA.gov is the U.S. government's official web portal to all federal, state and local government web resources and services.